Location: Saint Louis
(38.6272°N, 90.1978°W)
Time: 19:05:04
(UTC-05:00)

ISS - Pass Details

Date: 01 June 2013
Orbit: 402 x 404 km, 51.6° (Epoch: 27 May)

Event Time Altitude Azimuth Distance (km) Brightness Sun altitude
Exits shadow 01:29:30 15° 350° (N) 1,192 -0.2 -28.9°
Drops below altitude 10° 01:31:02 10° 18° (NNE) 1,459 0.4 -28.8°
Sets 01:33:44 0° 42° (NE) 2,323 1.3 -28.7°
